Date,TemperatureHighF,TemperatureAvgF,TemperatureLowF,DewpointHighF,DewpointAvgF,DewpointLowF,HumidityHigh,HumidityAvg,HumidityLow,PressureMaxIn,PressureMinIn,WindSpeedMaxMPH,WindSpeedAvgMPH,GustSpeedMaxMPH,PrecipitationSumIn
2013-1-1,44,42,38,43,37,12,100,87,33,30.03,29.90,2,0,6,0.70
2013-1-2,44,39,35,42,38,35,100,94,75,30.01,29.86,2,0,5,0.27
2013-1-3,39,33,24,36,30,17,100,88,70,30.07,29.94,1,0,4,0.00
2013-1-4,36,27,21,22,17,11,87,67,39,30.08,30.00,2,0,10,0.00
2013-1-5,48,34,20,34,15,2,87,53,16,30.10,30.03,1,0,4,0.03
2013-1-6,44,36,31,37,31,23,100,83,51,30.06,29.95,2,1,9,0.05
2013-1-7,44,32,24,26,23,19,93,72,38,30.17,30.03,1,0,8,0.01
2013-1-8,48,38,25,45,34,20,97,86,71,30.28,30.12,2,0,6,0.00
2013-1-9,53,49,46,52,49,45,100,97,92,30.49,30.28,1,0,2,0.00
2013-1-10,57,50,45,50,48,45,100,92,75,30.50,30.32,3,1,12,0.04
2013-1-11,56,52,48,56,52,48,100,99,99,30.33,30.22,2,1,12,0.59
2013-1-12,64,57,52,58,55,51,100,94,77,30.32,30.23,1,0,9,0.27
2013-1-13,58,55,53,55,53,50,100,92,85,30.26,30.17,3,1,13,0.21
2013-1-14,57,55,51,57,55,51,100,99,95,30.24,30.15,3,1,13,1.90
2013-1-15,54,53,51,54,53,51,100,100,99,30.22,30.07,2,0,11,1.89
2013-1-16,56,52,47,55,51,47,100,98,84,30.10,30.01,1,0,8,0.97
2013-1-17,49,43,30,49,42,22,100,96,72,30.06,29.69,5,1,16,2.34
2013-1-18,41,31,24,28,20,14,89,65,40,30.26,30.06,4,1,11,0.01
2013-1-19,46,33,22,25,18,0,95,61,17,30.23,30.02,2,0,7,0.00
2013-1-20,48,38,33,31,22,12,74,52,36,30.04,29.97,3,1,9,0.00
2013-1-21,42,33,26,27,20,12,82,59,37,29.98,29.84,4,1,19,0.00
2013-1-22,29,22,16,12,7,2,61,51,32,29.90,29.77,6,2,13,0.00
2013-1-23,38,29,21,26,18,9,75,65,54,29.99,29.86,3,2,10,0.00
2013-1-24,38,32,22,30,12,-7,80,48,15,30.11,29.83,5,2,16,0.00
2013-1-25,39,27,16,39,23,5,100,85,56,30.12,29.83,3,1,12,0.08
2013-1-26,44,35,27,37,25,16,96,70,35,30.14,29.87,1,0,5,0.01
2013-1-27,47,34,25,32,27,21,91,78,52,30.25,30.13,2,0,6,0.00
2013-1-28,53,45,35,47,41,26,100,86,66,30.30,30.22,3,0,10,0.00
2013-1-29,57,50,42,54,48,38,100,91,76,30.26,30.09,2,1,17,0.19
2013-1-30,56,51,36,56,51,35,100,99,91,30.09,29.58,4,2,22,3.86
2013-1-31,36,28,22,35,20,18,97,74,60,29.81,29.59,4,2,14,0.39
2013-2-1,32,23,15,27,10,0,93,58,33,29.97,29.72,5,2,16,0.00
2013-2-2,39,25,15,31,18,-10,96,74,28,29.96,29.77,3,0,9,0.00
2013-2-3,34,28,25,30,24,20,95,85,71,29.80,29.70,4,2,16,0.00
2013-2-4,45,33,23,26,20,13,81,60,41,29.88,29.76,3,1,9,0.08
2013-2-5,46,39,35,37,28,17,91,66,46,29.93,29.78,2,0,11,0.05
2013-2-6,51,40,32,36,25,15,85,59,27,30.11,29.93,2,0,8,0.01
2013-2-7,45,39,35,40,33,23,97,79,53,30.11,29.87,3,1,11,0.26
2013-2-8,43,38,30,42,35,23,100,89,67,29.99,29.82,4,1,13,0.06
2013-2-9,52,37,27,24,17,5,82,49,21,30.17,29.95,2,1,8,0.01
2013-2-10,44,38,33,43,27,17,100,68,34,30.23,30.05,3,1,17,0.87
2013-2-11,52,46,41,51,41,17,100,84,37,30.06,29.99,2,1,10,1.05
2013-2-12,51,39,33,35,25,4,95,61,15,30.03,29.80,1,0,5,0.15
2013-2-13,34,33,29,34,30,26,100,92,85,29.83,29.67,3,1,11,0.24
2013-2-14,44,33,25,27,24,16,96,75,35,29.88,29.74,2,1,6,0.01
2013-2-15,48,36,28,34,28,25,95,75,44,29.94,29.83,2,1,9,0.00
2013-2-16,30,24,16,28,18,6,92,79,55,29.83,29.64,4,2,11,0.00
2013-2-17,29,19,12,10,6,2,71,56,35,29.88,29.66,4,2,16,0.00
2013-2-18,47,32,21,26,18,10,70,58,38,30.04,29.88,2,1,13,0.01
2013-2-19,41,34,28,37,25,11,100,71,42,29.96,29.79,5,2,18,0.36
2013-2-20,42,31,22,12,4,-4,54,34,16,29.91,29.84,5,2,14,0.01
2013-2-21,57,38,26,32,14,-12,96,41,9,30.06,29.88,2,0,7,0.51
2013-2-22,46,37,30,46,36,29,100,98,95,30.09,29.94,2,1,9,1.16
2013-2-23,51,46,41,50,46,37,100,98,87,29.96,29.83,1,0,4,0.41
2013-2-24,52,40,30,37,27,17,96,65,28,29.94,29.83,2,1,7,0.01
2013-2-25,45,36,26,34,26,21,97,69,48,29.96,29.80,3,1,11,0.05
2013-2-26,42,38,33,42,37,30,100,96,88,29.80,29.47,3,2,17,2.27
2013-2-27,41,34,30,32,29,27,90,83,61,29.66,29.54,2,1,9,1.91
2013-2-28,33,27,24,28,23,20,86,82,77,29.68,29.57,3,2,12,0.00
2013-3-1,33,27,24,26,23,20,91,85,74,29.67,29.61,2,1,16,0.01
2013-3-2,30,25,18,25,22,15,95,88,74,29.65,29.59,2,1,7,0.03
2013-3-3,31,20,14,17,13,10,87,74,51,29.67,29.59,3,2,9,0.03
2013-3-4,47,31,16,27,17,8,81,59,27,29.87,29.65,2,1,9,0.02
2013-3-5,50,40,27,47,37,22,100,88,60,29.89,29.61,4,1,16,0.73
2013-3-6,27,23,18,23,20,15,93,87,79,29.83,29.55,6,3,20,0.10
2013-3-7,48,32,20,28,23,19,96,75,36,30.03,29.81,2,1,6,0.01
2013-3-8,52,37,24,23,16,6,89,46,22,30.14,30.01,2,0,6,0.01
2013-3-9,60,42,28,30,24,14,79,53,26,30.19,30.11,3,0,8,0.00
2013-3-10,58,45,34,33,29,26,72,55,33,30.22,30.11,3,1,14,0.00
2013-3-11,47,45,43,47,44,33,100,96,66,30.12,29.83,3,1,16,1.68
2013-3-12,52,43,33,47,36,24,100,79,41,29.97,29.77,3,1,9,1.18
2013-3-13,33,29,22,26,20,14,74,69,60,29.97,29.91,4,2,13,0.01
2013-3-14,43,28,17,15,11,5,80,53,25,30.00,29.89,3,2,11,0.00
2013-3-15,58,44,29,40,30,13,83,59,35,30.01,29.93,4,1,17,0.00
2013-3-16,66,55,49,44,41,37,68,59,43,30.05,29.93,4,2,13,0.00
2013-3-17,64,54,48,46,42,38,86,65,38,30.09,30.00,3,1,10,0.00
2013-3-18,47,44,40,46,43,40,100,97,88,30.06,29.82,2,0,10,0.66
2013-3-19,50,41,34,42,25,10,100,58,31,29.98,29.84,4,1,9,0.46
2013-3-20,45,35,28,26,10,3,91,36,19,29.98,29.70,3,1,13,0.00
2013-3-21,33,26,16,26,11,3,91,54,37,29.72,29.57,4,2,11,0.00
2013-3-22,39,30,20,28,16,9,72,58,34,29.82,29.63,2,0,6,0.00
2013-3-23,52,41,34,46,38,29,100,89,75,29.86,29.78,2,0,7,0.09
2013-3-24,47,40,34,44,39,33,100,96,87,29.83,29.44,3,1,13,0.95
2013-3-25,34,25,21,33,22,18,95,85,77,29.63,29.43,5,2,18,0.12
2013-3-26,30,24,20,24,20,18,92,85,70,29.88,29.60,4,3,11,0.00
2013-3-27,42,30,21,23,19,16,85,66,40,30.01,29.85,3,2,12,0.01
2013-3-28,47,34,25,20,16,8,76,52,21,30.12,29.99,4,1,11,0.01
2013-3-29,46,34,23,35,24,15,97,71,33,30.17,30.08,2,0,6,0.09
2013-3-30,56,44,36,41,37,33,100,79,41,30.09,30.02,2,0,8,0.15
2013-3-31,55,48,42,48,45,-100,100,92,75,30.03,29.90,2,0,11,0.53
2013-4-1,57,48,39,47,40,34,100,78,47,29.99,29.89,3,1,11,0.04